Regional Weather Roundup
Issued by NWS

Home | Current Version | Previous Version | Text Only | Print | Product List | Glossary Off
Versions: 1 2 3 4 5 6 7 8 9 10 11 12 13 14 15 16 17 18 19 20 21 22 23 24 25 26 27 28 29 30 31 32 33 34 35 36 37 38 39 40 41 42 43 44 45 46 47 48 49 50

000
ASUS45 KABQ 281910
RWRNM
WEATHER ROUNDUP FOR NEW MEXICO
NATIONAL WEATHER SERVICE ALBUQUERQUE NM
100 PM MDT MON JUL 28 2014

NOTE: "FAIR" MEANS FEW OR NO CLOUDS BELOW 12,000 FEET AGL WITH NO
       SIGNIFICANT WEATHER OR OBSTRUCTIONS TO VISION.

      THIS PRODUCT IS RELEASED AS TWO VERSIONS.  ONE VERSION NEAR
      THE TOP OF THE HOUR CONTAINING PRELIMINARY DATA FROM ALBUQUERQUE
      AND OTHER STATIONS.  A FINAL VERSION WITH ADDITIONAL DATA IS
      ISSUED ABOUT 10 MINUTES AFTER THE HOUR.

NMZ501-503-504-510>518-282000-
NORTHWEST PLATEAU/NORTHCENTRAL MOUNTAINS

CITY           SKY/WX    TMP DP  RH WIND       PRES   REMARKS
FARMINGTON     SUNNY     82  54  37 SE8       30.34F
LOS ALAMOS     MOSUNNY   72  53  50 SW8       30.50F
SANTA FE       MOSUNNY   77  55  46 SW12      30.42F
TAOS           MOSUNNY   72  54  53 NW5       30.48F
ANGEL FIRE     FAIR      69  52  54 W12       30.57F

$$
NMZ402-403-502-505>509-282000-
WESTCENTRAL MOUNTAINS/SOUTHWEST MOUNTAINS

CITY           SKY/WX    TMP DP  RH WIND       PRES   REMARKS
GALLUP         CLOUDY    75  54  47 VRB5      30.42F
SILVER CITY    MOSUNNY   81  54  39 SE12G22   30.37F

$$
NMZ407-409-411-412-282000-
SOUTHERN DESERTS

CITY           SKY/WX    TMP DP  RH WIND       PRES   REMARKS
LORDSBURG      FAIR      84  55  37 SE7       30.28F
DEMING         MOSUNNY   84  58  40 NE10      30.28F
LAS CRUCES     CLOUDY    83  55  37 NE3       30.30F
HOLLOMAN AFB   CLOUDY    80  65  59 NW7       30.27F
ALAMOGORDO     PTSUNNY   81  59  47 NW6       30.29F
T OR C         PTSUNNY   79  56  45 CALM      30.33F

$$
NMZ519>523-282000-
CENTRAL VALLEYS/CENTRAL HIGHLANDS

CITY           SKY/WX    TMP DP  RH WIND       PRES   REMARKS
ALBUQUERQUE    PTSUNNY   79  53  40 SW8       30.38F
DOUBLE EAGLE   PTSUNNY   79  54  41 S8        30.42F
MORIARTY ARPT  FAIR      74  51  44 S10       30.47S
CLINES CORNERS PTSUNNY   69  56  62 SE12      30.50S
BELEN          FAIR      80  53  38 SE12G17   30.37S
SOCORRO        FAIR      80  52  37 SE12G17   30.34F

$$
NMZ524>526-539-540-282000-
SOUTHCENTRAL MOUNTAINS

CITY           SKY/WX    TMP DP  RH WIND       PRES   REMARKS
RUIDOSO        CLOUDY    70  54  56 E7        30.50S

$$
NMZ527>531-282000-
NORTHEAST HIGHLANDS/NORTHEAST PLAINS

CITY           SKY/WX    TMP DP  RH WIND       PRES   REMARKS
LAS VEGAS      SUNNY     71  58  63 S14       30.48F
RATON          NOT AVBL
CLAYTON        CLOUDY    65  58  78 S13       30.42S

$$
NMZ532>537-282000-
EASTCENTRAL PLAINS

CITY           SKY/WX    TMP DP  RH WIND       PRES   REMARKS
TUCUMCARI      CLOUDY    80  60  50 SE8       30.35F
CANNON AFB     MOSUNNY   80  62  54 E10       30.36F
CLOVIS AIRPORT MOSUNNY   79  61  53 E10G20    30.38

$$
NMZ028-029-538-282000-
SOUTHEAST PLAINS

CITY           SKY/WX    TMP DP  RH WIND       PRES   REMARKS
ROSWELL        CLOUDY    86  58  38 VRB7      30.28F
ARTESIA        PTSUNNY   86  55  35 NE13      30.27F
CARLSBAD       PTSUNNY   91  55  29 NE8G22    30.22F
HOBBS          MOSUNNY   90  57  33 NE10G20   30.28F


$$


USA.gov is the U.S. government's official web portal to all federal, state and local government web resources and services.